Weather Roundup
Issued by NWS

Home | Current Version | Previous Version | Text Only | Print | Product List | Glossary On
Versions: 1 2 3 4 5 6 7 8 9 10 11 12 13 14 15 16 17 18 19 20 21 22 23 24 25 26 27 28 29 30 31 32 33 34 35 36 37 38 39 40 41 42 43 44 45 46 47 48 49 50
000
NZUS93 KARX 220959
HRRWXR

CURRENT HOURLY OBSERVATIONS ACROSS
MUCH OF THE UPPER MISSISSIPPI VALLEY
NATIONAL WEATHER SERVICE LA CROSSE WI
500 AM CDT WED OCT 22 2014


...SOUTHEAST MINNESOTA...


CITY           SKY/WX    TMP DP  RH WIND       PRES   REMARKS
ROCHESTER      CLEAR     38  35  89 S9        30.24R WCI  31
ROCHESTER/MAYO FAIR      39  34  83 SE8       30.24R WCI  33
WINONA         CLEAR     37  36  93 CALM      30.28R
AUSTIN         CLEAR     39  36  87 S9        30.22S WCI  33
ALBERT LEA     CLEAR     41  37  87 SE16      30.20S
DODGE CENTER   CLEAR     37  36  93 S9        30.22R WCI  31
PRESTON        CLEAR     37  35  90 S10       30.25S WCI  30
OWATONNA       CLEAR     43  36  75 SE15G22   30.19S
FARIBAULT      CLEAR     41  37  87 SE9       30.20S
$$

...ELSEWHERE IN MINNESOTA...


CITY           SKY/WX    TMP DP  RH WIND       PRES   REMARKS
MINNEAPOLIS    CLEAR     40  36  86 SE10      30.21R WCI  33
INTNL FALLS    CLEAR     41  35  79 SE10G17   30.06F
DULUTH         CLEAR     40  34  79 SE8       30.19R WCI  34
RED WING       CLEAR     43  36  75 SE9       30.24R
REDWOOD FALLS  CLEAR     46  38  73 SE17      30.08F
MANKATO        CLEAR     43  34  70 SE15      30.16S
WORTHINGTON    CLOUDY    50  39  66 S16G24    30.08S
FAIRMONT       CLEAR     43  34  70 SE17      30.14S
$$

...SOUTHWEST WISCONSIN...


CITY           SKY/WX    TMP DP  RH WIND       PRES   REMARKS
LA CROSSE      CLEAR     38  34  85 E5        30.29R WCI  34
PRAIRIE DU CHI CLEAR     36  34  90 CALM      30.29S
BOSCOBEL       FOG       35  33  92 E3        30.32R VSB 1/4
LONE ROCK      NOT AVBL
PLATTEVILLE    PTCLDY    35  33  93 E8        30.31S WCI  28
FORT MC COY    CLEAR     26  25  97 CALM      30.30S
VIROQUA        FAIR      36  36 100 SE7       30.27S WCI  30
WIS DELLS      PTCLDY    28  27  96 CALM      30.30S
$$

...ELSEWHERE IN WISCONSIN...


CITY           SKY/WX    TMP DP  RH WIND       PRES   REMARKS
MILWAUKEE      PTCLDY    37  34  89 NW6       30.31S WCI  32
MADISON        CLEAR     28  27  96 CALM      30.31S FOG
GREEN BAY      CLEAR     30  28  92 NE3       30.34S
EAU CLAIRE     CLEAR     37  32  82 SE9       30.27R WCI  30
BLACK RVR FLS  FAIR      22  22  99 CALM      30.29R
MEDFORD        PTCLDY    32  31  96 CALM      30.28S
WAUSAU         CLEAR     31  29  92 E5        30.31R WCI  26
WIS RAPIDS     PTCLDY    28  26  92 CALM      30.33R
MARSHFIELD     PTCLDY    33  30  88 SE5       30.30R WCI  29
RICE LAKE      CLEAR     36  33  87 SE6       30.26S WCI  32
$$

...NORTHEAST IOWA...


CITY           SKY/WX    TMP DP  RH WIND       PRES   REMARKS
DECORAH        CLEAR     37  36  93 SE7G14    30.26R WCI  32
MASON CITY     CLEAR     39  36  89 SE14      30.23R WCI  31
CHARLES CITY   CLEAR     39  36  87 SE9       30.25R WCI  33
OELWEIN        CLEAR     37  36  93 SE12      30.27S WCI  30
$$

...ELSEWHERE IN IOWA...


CITY           SKY/WX    TMP DP  RH WIND       PRES   REMARKS
DES MOINES     CLEAR     45  38  76 SE8       30.21R
IOWA CITY      CLEAR     37  35  92 CALM      30.30R
FORT DODGE     CLEAR     45  36  70 SE10      30.18S
$$

...NORTHERN ILLINOIS...


CITY           SKY/WX    TMP DP  RH WIND       PRES   REMARKS
CHICAGO-OHARE  CLOUDY    46  40  79 N6        30.30R
CHICAGO-MIDWAY MOCLDY    48  39  71 W3        30.30R
MOLINE         CLEAR     32  31  96 E6        30.30R WCI  26
ROCKFORD       CLEAR     34  31  88 CALM      30.32R
PEORIA         PTCLDY    40  36  86 CALM      30.30R
$$

NOTE: "FAIR" INDICATES FEW OR NO CLOUDS BELOW 12,000 FEET WITH NO
SIGNIFICANT WEATHER AND/OR OBSTRUCTIONS TO VISIBILITY. WIND
SPEEDS ARE IN MILES-PER-HOUR.



USA.gov is the U.S. government's official web portal to all federal, state and local government web resources and services.